Regional Weather Roundup
Issued by NWS

Home | Current Version | Previous Version | Text Only | Print | Product List | Glossary Off
Versions: 1 2 3 4 5 6 7 8 9 10 11 12 13 14 15 16 17 18 19 20 21 22 23 24 25 26 27 28 29 30 31 32 33 34 35 36 37 38 39 40 41 42 43 44 45 46 47 48 49 50

000
ASUS43 KMPX 191010
RWRMN
WEATHER ROUNDUP FOR MINNESOTA
NATIONAL WEATHER SERVICE TWIN CITIES/CHANHASSEN MN
400 AM CST SUN FEB 19 2017


NOTE: "FAIR" INDICATES FEW OR NO CLOUDS BELOW 12,000 FEET WITH NO
SIGNIFICANT WEATHER AND/OR OBSTRUCTIONS TO VISIBILITY. N/A MEANS
CURRENT SKY AND/OR WEATHER CONDITIONS ARE NOT AVAILABLE.

MNZ060>063-068>070-191100-
   Twin Cities Metro

CITY           SKY/WX    TMP DP  RH WIND       PRES   REMARKS
TWIN CITIES    CLOUDY    33  30  88 E5        29.91R WCI  29
ST PAUL        CLOUDY    31  30  96 E3        29.92R
CRYSTAL        CLOUDY    29  25  85 CALM      29.89S
BLAINE         CLOUDY    30  30 100 CALM      29.90S
LAKEVILLE      CLOUDY    28  28 100 CALM      29.91R
EDEN PRAIRIE   CLOUDY    32  31  96 CALM      29.90R
SOUTH ST PAUL  CLOUDY    32  31  97 CALM      29.91S
LAKE ELMO      FAIR      30  30 100 CALM      29.92S
$$
MNZ001>005-007-008-013>017-022>024-027-028-191100-
   Northwest Minnesota

CITY           SKY/WX    TMP DP  RH WIND       PRES   REMARKS
BEMIDJI        MOCLDY    31  31 100 E3        29.87S
HALLOCK        CLOUDY    36  32  87 E8        29.85F
ROSEAU         CLOUDY    32  27  80 E6        29.88R WCI  26
WARROAD        CLOUDY    30  27  86 NE3       29.88F
THIEF RVR FALL CLOUDY    35  31  85 E9        29.85F WCI  28
CROOKSTON      CLOUDY    36  34  93 E12       29.84S
FOSSTON        CLOUDY    30  28  93 E6        29.85S WCI  24
DETROIT LAKES  PTCLDY    34  34 100 SE3       29.84R
MOORHEAD       PTCLDY    37  34  87 E7        29.80F
PARK RAPIDS    CLOUDY    32  28  85 E5        29.85S WCI  27
MAHNOMEN       FAIR      33  32  96 E6        29.83F WCI  27
$$
MNZ006-009>011-018-025>026-191100-
   North Central Minnesota

CITY           SKY/WX    TMP DP  RH WIND       PRES   REMARKS
BAUDETTE       CLOUDY    31  28  89 CALM      29.88R
FLAG ISLAND    CLOUDY    28  27  93 S3        29.89R
INTL FALLS     CLOUDY    29  27  92 CALM      29.89R
WASKISH        CLOUDY    32  30  93 CALM      29.89R
BIG FORK       CLOUDY    30  28  93 CALM      29.90R
LONGVILLE      PTCLDY    27  27 100 CALM      29.89R
GRAND RAPIDS   CLOUDY    29  28  96 CALM      29.91R
CRANE LAKE     CLOUDY    25  23  93 CALM      29.92R
ORR            CLOUDY    30  28  93 CALM      29.87R
COOK           CLOUDY    28  28 100 CALM      29.90R
WALKER         FAIR      29  28  95 E3        29.88R
$$
MNZ012-019>021-037-191100-
   Northeast Minnesota

CITY           SKY/WX    TMP DP  RH WIND       PRES   REMARKS
DULUTH         PTCLDY    33  30  88 N5        29.89R WCI  29
ELY            CLOUDY    27  27 100 CALM      29.89R
HIBBING        CLOUDY    29  29 100 CALM      29.89R
EVELETH        CLOUDY    32  30  92 CALM      29.91R
DULUTH HARBOR  CLEAR     34  30  86 CALM      29.92R
TWO HARBORS    CLOUDY    39  32  75 CALM      29.89R
SILVER BAY     CLOUDY    36  30  80 CALM      29.88R
GRAND MARAIS     N/A     31  27  85 NW3       29.90R
G MARAIS ARPRT CLEAR     30  25  80 CALM      29.87R
$$
MNZ029>031-032-039>041-046>048-054>057-064-191100-
   West Central Minnesota

CITY           SKY/WX    TMP DP  RH WIND       PRES   REMARKS
FERGUS FALLS   CLOUDY    43  36  75 SE10      29.84F
WHEATON        CLOUDY    34  32  93 SE10      29.80F WCI  26
MORRIS         PTCLDY    37  36  93 SE12      29.81F
ALEXANDRIA     CLEAR     37  34  89 SE9       29.84F
ELBOW LAKE     FAIR      38  36  91 E9        29.81F
WADENA         CLOUDY    30  30 100 CALM      29.85R FOG
GLENWOOD       CLOUDY    36  34  93 SE7       29.85S
APPLETON       CLOUDY    36  34  93 SE6       29.82F
BENSON         CLOUDY    39  34  81 SE6       29.85S
ORTONVILLE     CLOUDY    34  32  93 CALM      29.80S
WILLMAR        FAIR      36  36 100 CALM      29.87S
$$
MNZ033>034-036-042>043-049>051-058-059-191100-
   Central Minnesota

CITY           SKY/WX    TMP DP  RH WIND       PRES   REMARKS
ST CLOUD       CLEAR     30  29  96 SE3       29.88S
SAUK CENTRE    FAIR      32  32 100 CALM      29.87S FOG
PAYNESVILLE    CLEAR     30  30 100 CALM      29.87F
AITKIN         PTCLDY    28  25  86 CALM      29.88S
PINE RIVER     CLOUDY    27  27 100 CALM      29.91S
BRAINERD       CLOUDY    28  27  96 NE3       29.88S
STAPLES        CLOUDY    30  30 100 CALM      29.86S FOG
LONG PRAIRIE   FAIR      32  32 100 CALM      29.87S FOG
LITTLE FALLS   CLEAR     28  27  93 CALM      29.88S
LITCHFIELD     CLOUDY    34  34 100 CALM      29.88S FOG
BUFFALO        CLOUDY    31  29  94 CALM      29.90R FOG
MAPLE LAKE     FOG       31  31 100 CALM      29.90S VSB 1/2
HUTCHINSON     CLOUDY    33  33  99 E3        29.88S
$$
MNZ037-044-045-052-053-191100-
   East Central Minnesota

CITY           SKY/WX    TMP DP  RH WIND       PRES   REMARKS
PRINCETON      CLOUDY    28  28 100 CALM      29.89F FOG
MORA           CLOUDY    28  27  93 CALM      29.91F
CAMBRIDGE      CLOUDY    30  25  80 CALM      29.88F
RUSH CITY      PTCLDY    28  28 100 CALM      29.91S FOG
MOOSE LAKE     CLEAR     30  28  93 CALM      29.89R
HINCKLEY       FAIR      30  30 100 CALM      29.91R
CLOQUET        CLOUDY    30  27  86 CALM      29.89S
MCGREGOR       PTCLDY    30  28  93 CALM      29.89F
$$
MNZ071>073-080-081-089-090-097-098-191100-
   Southwest Minnesota

CITY           SKY/WX    TMP DP  RH WIND       PRES   REMARKS
MONTEVIDEO     CLOUDY    36  36 100 S9        29.85S
GRANITE FALLS  PTCLDY    38  35  89 E7        29.85F
CANBY          CLOUDY    34  33  97 CALM      29.82F
MARSHALL       PTCLDY    37  35  92 SE5       29.83F
REDWOOD FALLS  PTCLDY    36  33  89 SE5       29.86R
OLIVIA         CLOUDY    36  34  93 SE6       29.86R
PIPESTONE      CLOUDY    45  36  70 S12       29.81S
WINDOM         CLOUDY    39  37  93 S6        29.85S
WORTHINGTON    CLOUDY    39  37  92 S10       29.85S
JACKSON        CLOUDY    37  37 100 S8        29.87S
TRACY          PTCLDY    44  41  88 S14       29.83S
SLAYTON        MOCLDY    33  33  99 SE6       29.84F FOG     WCI  28
$$
MNZ065>067-074>077-082>085-091>093-191100-
   South Central Minnesota

CITY           SKY/WX    TMP DP  RH WIND       PRES   REMARKS
MANKATO          N/A     36  35  96 S6        29.89R
NEW ULM        CLOUDY    36  36 100 SE8       29.87R
ST JAMES       PTCLDY    34  34 100 CALM      29.88S
FAIRMONT       CLOUDY    35  35 100 S8        29.88S FOG     WCI  29
FARIBAULT      PTCLDY    28  28 100 CALM      29.91R
OWATONNA       CLOUDY    34  30  86 SE7       29.90R WCI  28
WASECA         PTCLDY    36  36 100 E5        29.90S
ALBERT LEA     FOG       30  30 100 CALM      29.90S VSB 1/4
$$
MNZ078>079-086>088-094>096-191100-
   Southeast Minnesota

CITY           SKY/WX    TMP DP  RH WIND       PRES   REMARKS
ROCHESTER      CLEAR     32  32 100 S7        29.91R WCI  26
RED WING       CLEAR     30  28  93 E3        29.92R
STANTON        CLEAR     31  29  92 CALM      29.89S
DODGE CENTER   CLOUDY    37  36  93 CALM      29.90S
WINONA         CLEAR     30  30 100 CALM      29.94S
AUSTIN         FOG       30  28  93 CALM      29.90S VSB 1/2
PRESTON        CLEAR     34  33  95 CALM      29.92R
$$
ABBREVIATIONS USED IN REMARKS
   TC - TEMPERATURES IN CELSIUS
  WCI - WIND CHILL INDEX
   HX - HEAT INDEX
  VSB - VISIBILITY
$$




USA.gov is the U.S. government's official web portal to all federal, state and local government web resources and services.